Location: Palau
(42.3086°N, 3.1507°E)
Time: 21:44:48
(UTC+00:00)

Cosmos 1300 - Pass Details

Date: 26 May 2020
Orbit: 512 x 513 km, 82.5° (Epoch: 11 July)

Event Time Altitude Azimuth Distance (km) Brightness Sun altitude
Rises 00:19:12 0° 3° (N) 2,637 7.6 -26.0°
Reaches altitude 10° 00:21:35 10° 16° (NNE) 1,745 6.4 -25.9°
Enters shadow 00:24:45 27° 72° (ENE) 1,023 4.4 -25.8°
